Date String (YYYY-MM-DD hh:mm:ss) UTC,Instrument flags,absolute air pressure of the measurement (hPa),sample flow rate (lpm),inlet stack bypass flow (lpm),air temperature of the measurement (°C),ambient temperature measured by the external sensor (°C),aerosol sample conditioner tube jacket temperature (°C),OPC LED temperature (°C),internal box temperature (°C),relative humidity of the measurement (%),span deviation,mass concentration of particles derived from Lorenz-Mie calculation of OPC scattering (μg/m³),mass concentration of particles derived from Lorenz-Mie calculation of OPC scattering (μg/m³),mass concentration of particles derived from Lorenz-Mie calculation of OPC scattering (μg/m³)
DateTimeUTC,F1_M11,P_M11,Q1_M11,Q2_M11,T1_M11,T2_M11,T3_M11,T4_M11,T5_M11,U1_M11,ZSPAN_M11,X0_M11,X2_M11,X1_M11
2023-10-09 18:00:00,SystemResetWarning,0828.4,5.00,000.00,028.6,027.3,000.0,037.0,030.4,15.5,0000.0,0012.02,0004.06,0003.36
2023-10-09 18:01:00,SystemResetWarning,0828.4,5.02,000.00,028.6,027.5,000.0,037.0,030.4,15.4,0000.0,0012.08,0004.07,0003.37
2023-10-09 18:02:00,SystemResetWarning,0828.4,5.00,000.00,028.7,027.6,000.0,037.1,030.5,15.2,0000.0,0011.88,0004.07,0003.40
2023-10-09 18:03:00,SystemResetWarning,0828.4,4.98,000.00,028.7,026.8,000.0,037.0,030.5,15.6,0000.0,0012.07,0004.07,0003.42
2023-10-09 18:04:00,SystemResetWarning,0828.4,5.00,000.00,028.6,025.1,000.0,037.0,030.3,15.9,0000.0,0012.06,0004.09,0003.44
2023-10-09 18:05:00,SystemResetWarning,0828.4,5.01,000.00,028.6,024.6,000.0,036.9,030.1,15.9,0000.0,0011.74,0004.11,0003.46
2023-10-09 18:06:00,SystemResetWarning,0828.3,5.00,000.00,028.5,024.8,000.0,036.9,030.0,15.4,0000.0,0011.27,0004.14,0003.48
2023-10-09 18:07:00,SystemResetWarning,0828.4,5.00,000.00,028.4,025.2,000.0,036.9,029.9,15.4,0000.0,0010.25,0004.16,0003.50
2023-10-09 18:08:00,SystemResetWarning,0828.3,5.00,000.00,028.4,025.6,000.0,036.9,029.9,15.6,0000.0,0009.89,0004.14,0003.50
2023-10-09 18:09:00,SystemResetWarning,0828.3,4.99,000.00,028.4,025.9,000.0,036.9,030.0,15.5,0000.0,0010.04,0004.15,0003.51
2023-10-09 18:10:00,SystemResetWarning,0828.3,5.00,000.00,028.4,026.3,000.0,036.9,030.1,15.4,0000.0,0010.62,0004.19,0003.53
2023-10-09 18:11:00,SystemResetWarning,0828.3,5.00,000.00,028.4,026.6,000.0,036.9,030.1,15.4,0000.0,0010.21,0004.21,0003.56
2023-10-09 18:12:00,SystemResetWarning,0828.3,5.00,000.00,028.5,026.8,000.0,036.9,030.2,15.1,0000.0,0009.54,0004.23,0003.57
2023-10-09 18:13:00,SystemResetWarning,0828.3,5.01,000.00,028.5,027.0,000.0,036.9,030.3,15.3,0000.0,0009.77,0004.24,0003.56
2023-10-09 18:14:00,SystemResetWarning,0828.3,5.01,000.00,028.5,027.2,000.0,037.0,030.3,15.1,0000.0,0010.23,0004.28,0003.58
2023-10-09 18:15:00,SystemResetWarning,0828.3,4.99,000.00,028.6,027.3,000.0,037.0,030.4,15.1,0000.0,0011.04,0004.32,0003.59
2023-10-09 18:16:00,SystemResetWarning,0828.3,4.99,000.00,028.6,027.5,000.0,037.0,030.4,15.2,0000.0,0011.47,0004.35,0003.59
2023-10-09 18:17:00,SystemResetWarning,0828.3,5.00,000.00,028.7,027.3,000.0,037.0,030.5,15.4,0000.0,0012.05,0004.34,0003.60
2023-10-09 18:18:00,SystemResetWarning,0828.2,5.00,000.00,028.6,025.6,000.0,037.0,030.3,15.2,0000.0,0012.74,0004.35,0003.59
2023-10-09 18:19:00,SystemResetWarning,0828.2,5.01,000.00,028.5,024.5,000.0,036.9,030.1,15.2,0000.0,0012.96,0004.39,0003.59
2023-10-09 18:20:00,SystemResetWarning,0828.2,5.02,000.00,028.5,024.6,000.0,036.8,030.0,15.0,0000.0,0013.30,0004.39,0003.60
2023-10-09 18:21:00,SystemResetWarning,0828.2,5.00,000.00,028.4,025.0,000.0,036.9,029.9,15.1,0000.0,0013.33,0004.38,0003.60
2023-10-09 18:22:00,SystemResetWarning,0828.1,5.00,000.00,028.3,025.4,000.0,036.9,029.9,15.2,0000.0,0013.51,0004.43,0003.60
2023-10-09 18:23:00,SystemResetWarning,0828.1,5.00,000.00,028.3,025.8,000.0,036.9,030.0,15.4,0000.0,0014.02,0004.51,0003.61
2023-10-09 18:24:00,SystemResetWarning,0828.1,5.00,000.00,028.3,026.1,000.0,036.9,030.0,15.4,0000.0,0013.46,0004.54,0003.61
2023-10-09 18:25:00,SystemResetWarning,0828.0,5.00,000.00,028.4,026.4,000.0,036.9,030.1,15.5,0000.0,0014.08,0004.57,0003.61
2023-10-09 18:26:00,SystemResetWarning,0828.1,5.00,000.00,028.4,026.7,000.0,036.9,030.1,15.7,0000.0,0013.83,0004.57,0003.61
2023-10-09 18:27:00,SystemResetWarning,0828.1,4.98,000.00,028.4,026.9,000.0,036.9,030.2,15.8,0000.0,0013.58,0004.63,0003.62
2023-10-09 18:28:00,SystemResetWarning,0828.1,5.00,000.00,028.5,027.1,000.0,036.9,030.2,15.3,0000.0,0013.88,0004.65,0003.63
2023-10-09 18:29:00,SystemResetWarning,0828.1,5.01,000.00,028.5,027.3,000.0,036.9,030.3,15.4,0000.0,0015.44,0004.71,0003.64
2023-10-09 18:30:00,SystemResetWarning,0828.1,5.00,000.00,028.6,027.4,000.0,036.9,030.4,14.9,0000.0,0016.35,0004.74,0003.66
2023-10-09 18:31:00,SystemResetWarning,0828.1,5.01,000.00,028.6,027.5,000.0,037.0,030.4,15.1,0000.0,0016.37,0004.74,0003.66
2023-10-09 18:32:00,SystemResetWarning,0828.1,4.98,000.00,028.6,027.2,000.0,037.0,030.5,15.0,0000.0,0015.87,0004.79,0003.66
2023-10-09 18:33:00,SystemResetWarning,0828.1,4.99,000.00,028.6,025.5,000.0,036.9,030.3,14.9,0000.0,0015.73,0004.77,0003.65
2023-10-09 18:34:00,SystemResetWarning,0828.0,5.01,000.00,028.5,024.5,000.0,036.8,030.1,14.5,0000.0,0016.46,0004.71,0003.65
2023-10-09 18:35:00,SystemResetWarning,0827.9,5.01,000.00,028.5,024.6,000.0,036.8,030.0,14.6,0000.0,0017.75,0004.67,0003.64
2023-10-09 18:36:00,SystemResetWarning,0827.9,5.00,000.00,028.4,025.0,000.0,036.8,029.9,14.5,0000.0,0017.79,0004.62,0003.64
2023-10-09 18:37:00,SystemResetWarning,0827.8,5.00,000.00,028.3,025.4,000.0,036.8,029.9,14.7,0000.0,0018.29,0004.64,0003.64
2023-10-09 18:38:00,SystemResetWarning,0827.8,5.00,000.00,028.3,025.8,000.0,036.8,029.9,14.9,0000.0,0018.55,0004.61,0003.63
2023-10-09 18:39:00,SystemResetWarning,0827.8,5.00,000.00,028.3,026.1,000.0,036.9,030.0,15.2,0000.0,0017.71,0004.57,0003.62
2023-10-09 18:40:00,SystemResetWarning,0827.8,5.00,000.00,028.4,026.4,000.0,036.9,030.1,14.6,0000.0,0016.06,0004.53,0003.62
2023-10-09 18:41:00,SystemResetWarning,0827.8,5.00,000.00,028.4,026.7,000.0,036.9,030.1,14.5,0000.0,0014.94,0004.48,0003.61
2023-10-09 18:42:00,SystemResetWarning,0827.7,5.00,000.00,028.4,026.9,000.0,036.9,030.2,13.9,0000.0,0014.65,0004.49,0003.60
2023-10-09 18:43:00,SystemResetWarning,0827.8,4.99,000.00,028.5,027.1,000.0,036.9,030.3,14.1,0000.0,0014.47,0004.44,0003.60
2023-10-09 18:44:00,SystemResetWarning,0827.8,4.99,000.00,028.5,027.3,000.0,036.9,030.3,14.1,0000.0,0014.53,0004.42,0003.59
2023-10-09 18:45:00,SystemResetWarning,0827.7,4.99,000.00,028.5,027.4,000.0,036.9,030.4,13.9,0000.0,0013.19,0004.39,0003.57
2023-10-09 18:46:00,SystemResetWarning,0827.7,5.00,000.00,028.6,027.5,000.0,036.9,030.4,13.9,0000.0,0011.67,0004.39,0003.56
2023-10-09 18:47:00,SystemResetWarning,0827.7,5.00,000.00,028.6,026.2,000.0,036.9,030.3,13.7,0000.0,0010.74,0004.41,0003.56
2023-10-09 18:48:00,SystemResetWarning,0827.7,5.01,000.00,028.5,024.7,000.0,036.8,030.1,13.7,0000.0,0010.05,0004.39,0003.55
2023-10-09 18:49:00,SystemResetWarning,0827.7,5.01,000.00,028.5,024.5,000.0,036.8,030.0,13.8,0000.0,0009.58,0004.39,0003.53
2023-10-09 18:50:00,SystemResetWarning,0827.7,5.02,000.00,028.4,024.8,000.0,036.8,029.9,13.6,0000.0,0010.24,0004.40,0003.52
2023-10-09 18:51:00,SystemResetWarning,0827.6,4.99,000.00,028.3,025.2,000.0,036.8,029.9,13.8,0000.0,0010.36,0004.36,0003.50
2023-10-09 18:52:00,SystemResetWarning,0827.6,5.01,000.00,028.3,025.6,000.0,036.8,029.9,13.3,0000.0,0011.83,0004.33,0003.49
2023-10-09 18:53:00,SystemResetWarning,0827.5,4.99,000.00,028.3,026.0,000.0,036.8,030.0,13.4,0000.0,0012.36,0004.26,0003.48
2023-10-09 18:54:00,SystemResetWarning,0827.6,4.99,000.00,028.3,026.3,000.0,036.8,030.0,13.4,0000.0,0013.34,0004.26,0003.48
2023-10-09 18:55:00,SystemResetWarning,0827.5,5.00,000.00,028.4,026.6,000.0,036.8,030.1,13.2,0000.0,0013.83,0004.27,0003.48
2023-10-09 18:56:00,SystemResetWarning,0827.6,5.01,000.00,028.4,026.8,000.0,036.8,030.1,13.5,0000.0,0013.88,0004.24,0003.49
2023-10-09 18:57:00,SystemResetWarning,0827.5,5.01,000.00,028.4,027.1,000.0,036.8,030.2,13.8,0000.0,0014.30,0004.20,0003.49
2023-10-09 18:58:00,SystemResetWarning,0827.5,4.99,000.00,028.5,027.2,000.0,036.9,030.3,13.5,0000.0,0015.08,0004.21,0003.49
2023-10-09 18:59:00,SystemResetWarning,0827.7,5.00,000.00,028.5,027.4,000.0,036.9,030.3,13.8,0000.0,0016.22,0004.26,0003.49
